Location: Shenandoah County Park
(38.9356°N, 78.4524°W)
Time: 17:10:44
(UTC-04:00)

BlueWalker 3 - Pass Details

Date: 15 September 2024
Orbit: 473 x 485 km, 53.2° (Epoch: 05 October)

Event Time Altitude Azimuth Distance (km) Brightness Sun altitude
Rises 19:50:56 0° 312° (NW) 2,542 6.6 -6.6°
Reaches altitude 10° 19:53:06 10° 313° (NW) 1,663 5.5 -7.0°
Maximum altitude 19:56:51 80° 41° (NE) 496 1.8 -7.7°
Drops below altitude 10° 20:00:37 10° 128° (SE) 1,664 4.0 -8.4°
Enters shadow 20:00:57 - 129° (SE) 1,797 4.2 -8.5°
